Latest Coastal Weather Observations for Mallacoota

IDV60701

Issued at 2:51 am EST Wednesday 23 August 2017 (issued every 10 minutes, with the page automatically refreshed every 10 minutes)

About coastal observations | Map of coastal stations | Coastal observations for VIC | Marine services | Other Formats
Station Details ID: 084084 Name: MALLACOOTA Lat: -37.60 Lon: 149.73 Height: 22.0 m
Data from the previous 72 hours. | See also: Recent months at Mallacoota
Date/Time
EST
Temp
°C
Wind Pressure Rain since
9am
mm
Weather Cloud Vis
km
Sea
Height
m
Swell
Dir  Spd
kts
Gust
kts
hPa Trend Height
m
Period
s
Dir
23/02:30am 4.9 WNW 7 10 1018.8 - 0.0 - - - - - - -
23/02:00am 4.4 WNW 7 8 1018.9 - 0.0 - - - - - - -
23/01:30am 5.0 NW 7 9 1019.1 - 0.0 - - - - - - -
23/01:00am 4.1 NW 6 8 1019.2 - 0.0 - - - - - - -
23/12:30am 4.1 WNW 4 6 1019.4 - 0.0 - - - - - - -
23/12:00am 4.3 WNW 5 6 1019.4 - 0.0 - - - - - - -
 
Date/Time
EST
Temp
°C
Wind Pressure Rain since
9am
mm
Weather Cloud Vis
km
Sea
Height
m
Swell
Dir  Spd
kts
Gust
kts
hPa Trend Height
m
Period
s
Dir
22/11:30pm 4.6 WNW 5 6 1019.6 - 0.0 - - - - - - -
22/11:00pm 4.7 WNW 5 6 1019.8 - 0.0 - - - - - - -
22/10:30pm 4.9 WNW 5 6 1020.1 - 0.0 - - - - - - -
22/10:00pm 5.5 NW 6 7 1020.2 - 0.0 - - - - - - -
22/09:30pm 5.6 WNW 6 7 1020.3 - 0.0 - - - - - - -
22/09:00pm 6.0 WNW 5 6 1020.2 - 0.0 - - - - - - -
22/08:30pm 6.1 WNW 4 5 1020.0 - 0.0 - - - - - - -
22/08:00pm 6.6 WNW 3 5 1020.0 - 0.0 - - - - - - -
22/07:30pm 8.0 NW 5 7 1019.7 - 0.0 - - - - - - -
22/07:00pm 8.0 NW 5 5 1019.4 - 0.0 - - - - - - -
22/06:30pm 8.2 NNW 3 4 1019.4 - 0.0 - - - - - - -
22/06:00pm 9.0 NNW 3 4 1019.3 - 0.0 - - - - - - -
22/05:30pm 10.0 N 2 5 1019.0 - 0.0 - - - - - - -
22/05:00pm 13.0 E 2 4 1018.9 - 0.0 - - - - - - -
22/04:30pm 13.8 SE 4 6 1018.5 - 0.0 - - - - - - -
22/04:00pm 14.0 ESE 5 6 1018.2 - 0.0 - - - - - - -
22/03:30pm 14.4 SSE 5 7 1017.9 - 0.0 - - - - - - -
22/03:00pm 14.3 S 5 8 1017.9 - 0.0 - - - - - - -
22/02:30pm 15.0 SE 5 7 1017.9 - 0.0 - - - - - - -
22/02:00pm 14.7 SSE 5 9 1018.0 - 0.0 - - - - - - -
22/01:30pm 14.6 SE 5 8 1018.2 - 0.0 - - - - - - -
22/01:00pm 14.2 SE 6 8 1018.1 - 0.0 - - - - - - -
22/12:30pm 14.6 SE 6 7 1018.4 - 0.0 - - - - - - -
22/12:00pm 14.4 ESE 6 8 1018.7 - 0.0 - - - - - - -
22/11:30am 15.4 SW 7 10 1019.1 - 0.0 - - - - - - -
22/11:00am 14.9 SW 7 9 1019.3 - 0.0 - - - - - - -
22/10:30am 14.2 WSW 5 9 1019.4 - 0.0 - - - - - - -
22/10:00am 13.8 WNW 5 7 1019.2 - 0.0 - - - - - - -
22/09:30am 13.0 WNW 4 5 1019.2 - 0.0 - - - - - - -
22/09:00am 11.6 NW 4 6 1019.0 - 0.0 - - - - - - -
22/08:30am 9.6 WNW 5 7 1018.9 - 0.0 - - - - - - -
22/08:00am 7.7 WNW 6 7 1018.9 - 0.0 - - - - - - -
22/07:30am 5.9 NW 6 9 1018.6 - 0.0 - - - - - - -
22/07:00am 4.8 NW 7 8 1018.4 - 0.0 - - - - - - -
22/06:30am 4.5 WNW 6 8 1018.1 - 0.0 - - - - - - -
22/06:00am 5.0 WNW 6 8 1017.7 - 0.0 - - - - - - -
22/05:30am 5.0 WNW 7 9 1017.4 - 0.0 - - - - - - -
22/05:00am 5.3 WNW 7 7 1017.1 - 0.0 - - - - - - -
22/04:30am 5.9 NW 6 7 1017.1 - 0.0 - - - - - - -
22/04:00am 6.9 WNW 6 7 1016.8 - 0.0 - - - - - - -
22/03:30am 6.9 WNW 6 8 1016.6 - 0.0 - - - - - - -
22/03:00am 6.7 WNW 5 7 1016.6 - 0.0 - - - - - - -
22/02:30am 6.9 WNW 5 7 1016.5 - 0.0 - - - - - - -
22/02:00am 6.8 WNW 5 6 1016.7 - 0.0 - - - - - - -
22/01:30am 7.0 NW 5 6 1017.0 - 0.0 - - - - - - -
22/01:00am 8.0 WNW 5 7 1017.1 - 0.0 - - - - - - -
22/12:30am 7.7 WNW 4 6 1017.2 - 0.0 - - - - - - -
22/12:00am 7.4 NW 4 6 1017.4 - 0.0 - - - - - - -
 
Date/Time
EST
Temp
°C
Wind Pressure Rain since
9am
mm
Weather Cloud Vis
km
Sea
Height
m
Swell
Dir  Spd
kts
Gust
kts
hPa Trend Height
m
Period
s
Dir
21/11:30pm 7.5 NW 4 6 1017.6 - 0.0 - - - - - - -
21/11:00pm 7.4 WNW 5 6 1017.6 - 0.0 - - - - - - -
21/10:30pm 7.5 WNW 5 25 1017.6 - 0.0 - - - - - - -
21/10:00pm 7.5 WNW 5 6 1017.4 - 0.0 - - - - - - -
21/09:30pm 8.1 WNW 5 7 1017.4 - 0.0 - - - - - - -
21/09:00pm 8.0 NW 5 7 1017.1 - 0.0 - - - - - - -
21/08:30pm 8.3 WNW 5 5 1016.9 - 0.0 - - - - - - -
21/08:00pm 8.6 NW 4 5 1016.6 - 0.0 - - - - - - -
21/07:30pm 8.7 WNW 4 6 1016.6 - 0.0 - - - - - - -
21/07:00pm 8.9 WNW 4 5 1016.4 - 0.0 - - - - - - -
21/06:30pm 9.2 WNW 2 4 1016.2 - 0.0 - - - - - - -
21/06:00pm 9.3 CALM 0 0 1016.0 - 0.0 - - - - - - -
21/05:30pm 9.7 CALM 0 0 1015.7 - 0.0 - - - - - - -
21/05:00pm 10.7 WNW 3 5 1015.6 - 0.0 - - - - - - -
21/04:30pm 11.0 NW 3 4 1015.6 - 0.0 - - - - - - -
21/04:00pm 11.6 NW 1 4 1015.4 - 0.0 - - - - - - -
21/03:30pm 12.4 WNW 4 6 1015.3 - 0.0 - - - - - - -
21/03:00pm 13.3 NNW 5 9 1015.1 - 0.0 - - - - - - -
21/02:30pm 15.5 NW 5 9 1015.1 - 0.0 - - - - - - -
21/02:00pm 13.9 WSW 6 9 1015.4 - 0.0 - - - - - - -
21/01:30pm 13.8 W 5 7 1015.7 - 0.0 - - - - - - -
21/01:00pm 14.2 W 6 10 1015.9 - 0.0 - - - - - - -
21/12:30pm 14.1 WNW 5 7 1016.0 - 0.0 - - - - - - -
21/12:00pm 14.1 NW 5 9 1016.3 - 0.0 - - - - - - -
21/11:30am 12.8 W 5 8 1016.8 - 0.0 - - - - - - -
21/11:00am 13.9 NW 4 7 1016.9 - 0.0 - - - - - - -
21/10:30am 12.1 NW 4 6 1017.0 - 0.0 - - - - - - -
21/10:00am 10.3 NW 4 7 1016.9 - 0.0 - - - - - - -
21/09:30am 9.7 NW 5 8 1017.1 - 0.0 - - - - - - -
21/09:00am 8.5 WNW 5 7 1017.2 - 0.0 - - - - - - -
21/08:30am 6.8 NW 5 7 1017.5 - 0.0 - - - - - - -
21/08:00am 5.5 NW 7 9 1017.6 - 0.0 - - - - - - -
21/07:30am 4.9 NW 6 8 1017.7 - 0.0 - - - - - - -
21/07:00am 4.6 NW 6 7 1017.5 - 0.0 - - - - - - -
21/06:30am 4.9 NW 7 9 1017.5 - 0.0 - - - - - - -
21/06:00am 4.7 NW 7 8 1017.4 - 0.0 - - - - - - -
21/05:30am 4.8 NW 8 9 1017.3 - 0.0 - - - - - - -
21/05:00am 5.2 NW 7 9 1017.3 - 0.0 - - - - - - -
21/04:30am 5.3 NW 7 8 1017.5 - 0.0 - - - - - - -
21/04:00am 4.9 NW 7 8 1017.8 - 0.0 - - - - - - -
21/03:30am 5.1 NW 7 9 1018.2 - 0.0 - - - - - - -
21/03:00am 5.3 NW 8 9 1018.5 - 0.0 - - - - - - -
21/02:30am 5.4 NW 7 9 1018.7 - 0.0 - - - - - - -
21/02:00am 5.4 NW 7 9 1018.7 - 0.0 - - - - - - -
21/01:30am 5.0 NW 7 9 1019.1 - 0.0 - - - - - - -
21/01:00am 5.2 NW 7 9 1019.4 - 0.0 - - - - - - -
21/12:30am 5.2 NW 7 9 1019.6 - 0.0 - - - - - - -
21/12:00am 5.0 WNW 6 8 1020.2 - 0.0 - - - - - - -
 
Date/Time
EST
Temp
°C
Wind Pressure Rain since
9am
mm
Weather Cloud Vis
km
Sea
Height
m
Swell
Dir  Spd
kts
Gust
kts
hPa Trend Height
m
Period
s
Dir
20/11:30pm 5.1 WNW 6 7 1020.5 - 0.0 - - - - - - -
20/11:00pm 5.2 WNW 6 8 1020.9 - 0.0 - - - - - - -
20/10:30pm 5.2 WNW 7 8 1021.0 - 0.0 - - - - - - -
20/10:00pm 5.4 WNW 6 8 1020.9 - 0.0 - - - - - - -
20/09:30pm 5.4 WNW 6 8 1021.1 - 0.0 - - - - - - -
20/09:00pm 5.3 WNW 6 8 1021.4 - 0.0 - - - - - - -
20/08:30pm 5.3 WNW 6 8 1021.3 - 0.0 - - - - - - -
20/08:00pm 5.2 WNW 6 7 1021.1 - 0.0 - - - - - - -
20/07:30pm 5.1 WNW 6 7 1021.1 - 0.0 - - - - - - -
20/07:00pm 5.8 WNW 5 7 1021.0 - 0.0 - - - - - - -
20/06:30pm 5.9 W 4 5 1021.1 - 0.0 - - - - - - -
20/06:00pm 6.9 WSW 4 6 1021.1 - 0.0 - - - - - - -
20/05:30pm 8.1 SW 3 6 1021.3 - 0.0 - - - - - - -
20/05:00pm 10.0 SW 4 6 1021.6 - 0.0 - - - - - - -
20/04:30pm 10.6 W 4 7 1021.8 - 0.0 - - - - - - -
20/04:00pm 11.6 WSW 4 6 1021.8 - 0.0 - - - - - - -
20/03:30pm 11.5 W 4 7 1021.9 - 0.0 - - - - - - -
20/03:00pm 11.3 SW 8 14 1022.1 - 0.0 - - - - - - -
20/02:30pm 11.4 SW 7 14 1022.1 - 0.0 - - - - - - -
20/02:00pm 13.0 W 7 13 1022.3 - 0.0 - - - - - - -
20/01:30pm 12.3 WSW 8 12 1022.7 - 0.0 - - - - - - -
20/01:00pm 11.5 WSW 7 14 1023.5 - 0.0 - - - - - - -
20/12:30pm 11.2 WSW 10 18 1023.9 - 0.0 - - - - - - -
20/12:00pm 11.8 WSW 9 17 1024.1 - 0.0 - - - - - - -
20/11:30am 11.7 WSW 10 18 1024.5 - 0.0 - - - - - - -
20/11:00am 11.3 WSW 9 15 1024.6 - 0.0 - - - - - - -
20/10:30am 10.4 WSW 10 16 1024.9 - 0.0 - - - - - - -
20/10:00am 10.3 WSW 9 17 1024.9 - 0.0 - - - - - - -
20/09:30am 9.7 W 9 15 1024.9 - 0.0 - - - - - - -
20/09:00am 8.7 W 9 16 1025.2 - 17.4 - - - - - - -
20/08:30am 8.4 W 9 15 1025.2 - 17.4 - - - - - - -
20/08:00am 7.3 W 8 14 1025.1 - 17.4 - - - - - - -
20/07:30am 7.7 W 9 18 1025.1 - 17.4 - - - - - - -
20/07:00am 6.8 W 9 15 1024.6 - 17.4 - - - - - - -
20/06:30am 6.5 W 9 17 1024.4 - 17.4 - - - - - - -
20/06:00am 6.1 W 8 13 1024.0 - 17.4 - - - - - - -
20/05:30am 6.4 W 9 14 1023.9 - 17.4 - - - - - - -
20/05:00am 6.1 W 8 14 1023.8 - 17.4 - - - - - - -
20/04:30am 6.4 W 9 17 1023.7 - 17.4 - - - - - - -
20/04:00am 6.2 W 9 15 1023.6 - 17.4 - - - - - - -
20/03:30am 6.1 W 10 16 1023.6 - 17.4 - - - - - - -
20/03:00am 6.0 W 8 15 1023.7 - 17.4 - - - - - - -

Other Formats:

Comma delimited format used in spreadsheet applications
http://www.bom.gov.au/fwo/IDV60701/IDV60701.94935.axf

JavaScript Object Notation format (JSON) in row-major order
http://www.bom.gov.au/fwo/IDV60701/IDV60701.94935.json